| time (UTC) | temp C | wind direction | speed KPH | gust KPH | rain 1hr cm | rain 24hr cm | rain mn cm | humidity % | barometer mb |
| 20260509034802 | 10 | 303 | 1.6 | 4.8 | 0.00 | 0.00 | 0.00 | 43 | 731.1 |
| 20260509034306 | 10 | 12 | 3.2 | 4.8 | 0.00 | 0.00 | 0.00 | 41 | 731.1 |
| 20260509033803 | 10 | 26 | 1.6 | 3.2 | 0.00 | 0.00 | 0.00 | 41 | 731.1 |
| 20260509033303 | 10 | 100 | 1.6 | 3.2 | 0.00 | 0.00 | 0.00 | 42 | 731.1 |
| 20260509032806 | 10 | 331 | 1.6 | 1.6 | 0.00 | 0.00 | 0.00 | 42 | 730.8 |
| 20260509032306 | 10 | 336 | 1.6 | 4.8 | 0.00 | 0.00 | 0.00 | 42 | 730.8 |
| 20260509031803 | 10 | 24 | 1.6 | 4.8 | 0.00 | 0.00 | 0.00 | 42 | 730.8 |
| 20260509031303 | 10 | 97 | 1.6 | 4.8 | 0.00 | 0.00 | 0.00 | 42 | 730.8 |
| 20260509030803 | 10 | 23 | 3.2 | 4.8 | 0.00 | 0.00 | 0.00 | 44 | 730.8 |
| 20260509030306 | 10 | 333 | 3.2 | 6.4 | 0.00 | 0.00 | 0.00 | 45 | 730.8 |
| 20260509025803 | 10 | 299 | 3.2 | 6.4 | 0.00 | 0.00 | 0.00 | 47 | 730.8 |
| 20260509025306 | 10 | 295 | 1.6 | 8.0 | 0.00 | 0.00 | 0.00 | 48 | 730.8 |
| 20260509024803 | 10 | 299 | 3.2 | 9.7 | 0.00 | 0.00 | 0.00 | 48 | 730.8 |
| 20260509024303 | 10 | 326 | 1.6 | 8.0 | 0.00 | 0.00 | 0.00 | 50 | 730.8 |
| 20260509023803 | 10 | 288 | 1.6 | 9.7 | 0.00 | 0.00 | 0.00 | 50 | 730.8 |
| 20260509023302 | 10 | 350 | 1.6 | 4.8 | 0.00 | 0.00 | 0.00 | 51 | 730.8 |
| 20260509022802 | 10 | 318 | 1.6 | 9.7 | 0.00 | 0.00 | 0.00 | 51 | 730.4 |
| 20260509022306 | 10 | 327 | 3.2 | 9.7 | 0.00 | 0.00 | 0.00 | 50 | 730.8 |
| 20260509021806 | 10 | 338 | 4.8 | 9.7 | 0.00 | 0.00 | 0.00 | 51 | 730.4 |
| 20260509021303 | 11 | 318 | 4.8 | 12.9 | 0.00 | 0.00 | 0.00 | 51 | 730.4 |
| 20260509020803 | 11 | 343 | 4.8 | 9.7 | 0.00 | 0.00 | 0.00 | 51 | 730.4 |
| 20260509020306 | 11 | 312 | 3.2 | 12.9 | 0.00 | 0.00 | 0.00 | 53 | 730.4 |
| 20260509015802 | 11 | 304 | 4.8 | 19.3 | 0.00 | 0.00 | 0.00 | 52 | 730.4 |
| 20260509015306 | 11 | 334 | 8.0 | 19.3 | 0.00 | 0.00 | 0.00 | 52 | 730.4 |
| 20260509014803 | 11 | 339 | 6.4 | 12.9 | 0.00 | 0.00 | 0.00 | 52 | 730.4 |
| 20260509014302 | 11 | 330 | 3.2 | 8.0 | 0.00 | 0.00 | 0.00 | 52 | 730.4 |
| 20260509013803 | 11 | 302 | 6.4 | 14.5 | 0.00 | 0.00 | 0.00 | 53 | 730.4 |
| 20260509013305 | 11 | 337 | 6.4 | 12.9 | 0.00 | 0.00 | 0.00 | 52 | 730.4 |
| 20260509012803 | 12 | 335 | 6.4 | 12.9 | 0.00 | 0.00 | 0.00 | 51 | 730.4 |
| 20260509012306 | 12 | 334 | 6.4 | 12.9 | 0.00 | 0.00 | 0.00 | 50 | 730.4 |
| 20260509011806 | 12 | 317 | 4.8 | 12.9 | 0.00 | 0.00 | 0.00 | 46 | 730.4 |
| 20260509011303 | 13 | 312 | 6.4 | 14.5 | 0.00 | 0.00 | 0.00 | 38 | 730.4 |
| 20260509010803 | 13 | 304 | 3.2 | 22.5 | 0.00 | 0.00 | 0.00 | 36 | 730.4 |
| 20260509010302 | 13 | 315 | 3.2 | 19.3 | 0.00 | 0.00 | 0.00 | 36 | 730.4 |
| 20260509005806 | 13 | 320 | 9.7 | 20.9 | 0.00 | 0.00 | 0.00 | 38 | 730.4 |
| 20260509005306 | 13 | 312 | 6.4 | 16.1 | 0.00 | 0.00 | 0.00 | 35 | 730.4 |
| 20260509004803 | 13 | 322 | 6.4 | 25.7 | 0.00 | 0.00 | 0.00 | 35 | 730.8 |
| 20260509004302 | 13 | 317 | 8.0 | 24.1 | 0.00 | 0.00 | 0.00 | 33 | 730.4 |
| 20260509003803 | 13 | 333 | 9.7 | 22.5 | 0.00 | 0.00 | 0.00 | 32 | 730.4 |
| 20260509003305 | 13 | 318 | 6.4 | 16.1 | 0.00 | 0.00 | 0.00 | 31 | 730.8 |
| 20260509002802 | 14 | 351 | 8.0 | 16.1 | 0.00 | 0.00 | 0.00 | 31 | 730.8 |
| 20260509002306 | 13 | 327 | 1.6 | 20.9 | 0.00 | 0.00 | 0.00 | 31 | 730.8 |
| 20260509001803 | 14 | 251 | 1.6 | 11.3 | 0.00 | 0.00 | 0.00 | 30 | 730.4 |
| 20260509001303 | 14 | 305 | 3.2 | 9.7 | 0.00 | 0.00 | 0.00 | 28 | 730.8 |
| 20260509000802 | 14 | 328 | 4.8 | 17.7 | 0.00 | 0.00 | 0.00 | 27 | 730.8 |
| 20260509000306 | 14 | 343 | 6.4 | 16.1 | 0.00 | 0.00 | 0.00 | 27 | 730.8 |
| 20260508235803 | 14 | 337 | 6.4 | 16.1 | 0.00 | 0.00 | 0.00 | 27 | 730.8 |
| 20260508235306 | 13 | 331 | 8.0 | 22.5 | 0.00 | 0.00 | 0.00 | 27 | 730.8 |
| 20260508234805 | 14 | 333 | 4.8 | 29.0 | 0.00 | 0.00 | 0.00 | 27 | 730.8 |
| 20260508234306 | 15 | 348 | 3.2 | 16.1 | 0.00 | 0.00 | 0.00 | 26 | 730.8 |
| 20260508233803 | 14 | 343 | 6.4 | 12.9 | 0.00 | 0.00 | 0.00 | 26 | 730.8 |
| 20260508233303 | 15 | 344 | 4.8 | 17.7 | 0.00 | 0.00 | 0.00 | 26 | 730.8 |
| 20260508232806 | 15 | 357 | 8.0 | 27.4 | 0.00 | 0.00 | 0.00 | 26 | 730.8 |
| 20260508232306 | 14 | 310 | 3.2 | 16.1 | 0.00 | 0.00 | 0.00 | 27 | 730.8 |
| 20260508231803 | 13 | 341 | 8.0 | 19.3 | 0.00 | 0.00 | 0.00 | 27 | 730.8 |
| 20260508231306 | 13 | 351 | 8.0 | 19.3 | 0.00 | 0.00 | 0.00 | 27 | 730.8 |
| 20260508230802 | 14 | 356 | 9.7 | 22.5 | 0.00 | 0.00 | 0.00 | 26 | 730.8 |
| 20260508230303 | 13 | 340 | 8.0 | 17.7 | 0.00 | 0.00 | 0.00 | 27 | 730.8 |
| 20260508225802 | 13 | 0 | 9.7 | 17.7 | 0.00 | 0.00 | 0.00 | 27 | 730.8 |
| 20260508225307 | 13 | 46 | 4.8 | 20.9 | 0.00 | 0.00 | 0.00 | 26 | 730.8 |
| 20260508224802 | 14 | 11 | 4.8 | 22.5 | 0.00 | 0.00 | 0.00 | 26 | 730.8 |
| 20260508224302 | 14 | 0 | 12.9 | 24.1 | 0.00 | 0.00 | 0.00 | 26 | 731.1 |
| 20260508223803 | 14 | 334 | 4.8 | 17.7 | 0.00 | 0.00 | 0.00 | 27 | 731.1 |
| 20260508223303 | 14 | 345 | 6.4 | 17.7 | 0.00 | 0.00 | 0.00 | 27 | 731.1 |
| 20260508222803 | 14 | 350 | 9.7 | 19.3 | 0.00 | 0.00 | 0.00 | 27 | 731.1 |
| 20260508222306 | 13 | 355 | 12.9 | 27.4 | 0.00 | 0.00 | 0.00 | 27 | 731.1 |
| 20260508221803 | 13 | 2 | 3.2 | 22.5 | 0.00 | 0.00 | 0.00 | 27 | 731.1 |
| 20260508221303 | 13 | 357 | 9.7 | 24.1 | 0.00 | 0.00 | 0.00 | 27 | 731.1 |
| 20260508220803 | 13 | 344 | 9.7 | 20.9 | 0.00 | 0.00 | 0.00 | 26 | 731.1 |
| 20260508220303 | 13 | 17 | 8.0 | 25.7 | 0.00 | 0.00 | 0.00 | 27 | 731.4 |
| 20260508215802 | 13 | 338 | 9.7 | 25.7 | 0.00 | 0.00 | 0.00 | 28 | 731.4 |
| 20260508215306 | 13 | 326 | 11.3 | 22.5 | 0.00 | 0.00 | 0.00 | 27 | 731.4 |
| 20260508214802 | 13 | 354 | 11.3 | 20.9 | 0.00 | 0.00 | 0.00 | 27 | 731.4 |
| 20260508214302 | 13 | 1 | 8.0 | 20.9 | 0.00 | 0.00 | 0.00 | 28 | 731.4 |
| 20260508213803 | 13 | 9 | 9.7 | 24.1 | 0.00 | 0.00 | 0.00 | 28 | 731.4 |
| 20260508213306 | 13 | 8 | 6.4 | 22.5 | 0.00 | 0.00 | 0.00 | 28 | 731.4 |
| 20260508212805 | 13 | 332 | 6.4 | 22.5 | 0.00 | 0.00 | 0.00 | 28 | 731.4 |
| 20260508212306 | 13 | 352 | 8.0 | 17.7 | 0.00 | 0.00 | 0.00 | 29 | 731.4 |
| 20260508211803 | 13 | 347 | 11.3 | 22.5 | 0.00 | 0.00 | 0.00 | 28 | 731.4 |
| 20260508211303 | 13 | 343 | 12.9 | 22.5 | 0.00 | 0.00 | 0.00 | 28 | 731.4 |
| 20260508210803 | 13 | 2 | 11.3 | 20.9 | 0.00 | 0.00 | 0.00 | 28 | 731.4 |
| 20260508210303 | 13 | 0 | 9.7 | 20.9 | 0.00 | 0.00 | 0.00 | 29 | 731.4 |
| 20260508205805 | 13 | 346 | 11.3 | 22.5 | 0.00 | 0.00 | 0.00 | 28 | 731.4 |
| 20260508205306 | 13 | 354 | 9.7 | 17.7 | 0.00 | 0.00 | 0.00 | 29 | 731.4 |
| 20260508204803 | 13 | 348 | 11.3 | 20.9 | 0.00 | 0.00 | 0.00 | 29 | 731.4 |
| 20260508204302 | 13 | 355 | 11.3 | 19.3 | 0.00 | 0.00 | 0.00 | 28 | 731.4 |
| 20260508203802 | 14 | 331 | 6.4 | 20.9 | 0.00 | 0.00 | 0.00 | 30 | 731.4 |
| 20260508203303 | 13 | 353 | 9.7 | 16.1 | 0.00 | 0.00 | 0.00 | 30 | 731.4 |
| 20260508202803 | 13 | 8 | 11.3 | 19.3 | 0.00 | 0.00 | 0.00 | 30 | 731.4 |
| 20260508202306 | 13 | 352 | 8.0 | 19.3 | 0.00 | 0.00 | 0.00 | 31 | 731.4 |
| 20260508201803 | 13 | 9 | 6.4 | 19.3 | 0.00 | 0.00 | 0.00 | 30 | 731.4 |
| 20260508201303 | 13 | 337 | 6.4 | 19.3 | 0.00 | 0.00 | 0.00 | 31 | 731.4 |
| 20260508200802 | 13 | 351 | 8.0 | 17.7 | 0.00 | 0.00 | 0.00 | 31 | 731.4 |
| 20260508200302 | 13 | 14 | 11.3 | 20.9 | 0.00 | 0.00 | 0.00 | 30 | 731.8 |
| 20260508195802 | 13 | 340 | 11.3 | 24.1 | 0.00 | 0.00 | 0.00 | 31 | 731.4 |
| 20260508195305 | 13 | 11 | 9.7 | 16.1 | 0.00 | 0.00 | 0.00 | 30 | 731.8 |
| 20260508194802 | 13 | 358 | 8.0 | 14.5 | 0.00 | 0.00 | 0.00 | 30 | 731.8 |
| 20260508194305 | 13 | 338 | 6.4 | 19.3 | 0.00 | 0.00 | 0.00 | 31 | 731.8 |
| 20260508193803 | 13 | 27 | 8.0 | 20.9 | 0.00 | 0.00 | 0.00 | 30 | 731.8 |
| 20260508193303 | 13 | 16 | 8.0 | 16.1 | 0.00 | 0.00 | 0.00 | 31 | 731.8 |
| 20260508192805 | 13 | 354 | 11.3 | 17.7 | 0.00 | 0.00 | 0.00 | 30 | 731.8 |
| 20260508192305 | 13 | 330 | 3.2 | 14.5 | 0.00 | 0.00 | 0.00 | 30 | 731.8 |
| 20260508191806 | 13 | 7 | 8.0 | 16.1 | 0.00 | 0.00 | 0.00 | 31 | 731.8 |
| 20260508191303 | 13 | 338 | 8.0 | 16.1 | 0.00 | 0.00 | 0.00 | 30 | 731.8 |
| 20260508190803 | 13 | 351 | 6.4 | 19.3 | 0.00 | 0.00 | 0.00 | 31 | 731.8 |
| 20260508190302 | 13 | 336 | 9.7 | 20.9 | 0.00 | 0.00 | 0.00 | 31 | 731.8 |
| 20260508185802 | 13 | 317 | 8.0 | 20.9 | 0.00 | 0.00 | 0.00 | 32 | 731.8 |
| 20260508185306 | 13 | 0 | 8.0 | 16.1 | 0.00 | 0.00 | 0.00 | 31 | 731.8 |
| 20260508184806 | 12 | 0 | 6.4 | 17.7 | 0.00 | 0.00 | 0.00 | 32 | 731.8 |
| 20260508184302 | 12 | 351 | 8.0 | 17.7 | 0.00 | 0.00 | 0.00 | 31 | 731.8 |
| 20260508183803 | 12 | 8 | 4.8 | 17.7 | 0.00 | 0.00 | 0.00 | 32 | 731.8 |
| 20260508183302 | 13 | 352 | 9.7 | 17.7 | 0.00 | 0.00 | 0.00 | 31 | 731.8 |
| 20260508182803 | 12 | 7 | 3.2 | 17.7 | 0.00 | 0.00 | 0.00 | 31 | 731.8 |
| 20260508182306 | 12 | 1 | 8.0 | 20.9 | 0.00 | 0.00 | 0.00 | 31 | 731.8 |
| 20260508181804 | 12 | 350 | 8.0 | 19.3 | 0.00 | 0.00 | 0.00 | 31 | 731.8 |
| 20260508181306 | 12 | 0 | 8.0 | 19.3 | 0.00 | 0.00 | 0.00 | 31 | 731.8 |
| 20260508180802 | 12 | 4 | 8.0 | 20.9 | 0.00 | 0.00 | 0.00 | 31 | 731.8 |
| 20260508180302 | 12 | 348 | 9.7 | 20.9 | 0.00 | 0.00 | 0.00 | 31 | 731.8 |
| 20260508175803 | 12 | 1 | 8.0 | 19.3 | 0.00 | 0.00 | 0.00 | 30 | 731.8 |
| 20260508175305 | 12 | 342 | 6.4 | 14.5 | 0.00 | 0.00 | 0.00 | 30 | 731.8 |
| 20260508174802 | 12 | 353 | 4.8 | 14.5 | 0.00 | 0.00 | 0.00 | 30 | 731.8 |
| 20260508174302 | 12 | 355 | 4.8 | 14.5 | 0.00 | 0.00 | 0.00 | 30 | 731.8 |
| 20260508173802 | 12 | 38 | 3.2 | 17.7 | 0.00 | 0.00 | 0.00 | 30 | 731.8 |
| 20260508173303 | 12 | 358 | 6.4 | 12.9 | 0.00 | 0.00 | 0.00 | 29 | 731.8 |
| 20260508172803 | 12 | 345 | 6.4 | 12.9 | 0.00 | 0.00 | 0.00 | 29 | 731.8 |
| 20260508172306 | 12 | 356 | 4.8 | 16.1 | 0.00 | 0.00 | 0.00 | 29 | 731.8 |
| 20260508171806 | 12 | 8 | 4.8 | 12.9 | 0.00 | 0.00 | 0.00 | 30 | 731.8 |
| 20260508171302 | 12 | 344 | 6.4 | 14.5 | 0.00 | 0.00 | 0.00 | 29 | 731.8 |
| 20260508170803 | 12 | 0 | 6.4 | 14.5 | 0.00 | 0.00 | 0.00 | 29 | 731.8 |
| 20260508170303 | 12 | 352 | 6.4 | 12.9 | 0.00 | 0.00 | 0.00 | 29 | 731.8 |
| 20260508165816 | 12 | 351 | 3.2 | 17.7 | 0.00 | 0.00 | 0.00 | 30 | 731.8 |
| 20260508165307 | 11 | 342 | 8.0 | 16.1 | 0.00 | 0.00 | 0.00 | 30 | 731.4 |
| 20260508164805 | 11 | 0 | 9.7 | 17.7 | 0.00 | 0.00 | 0.00 | 30 | 731.4 |
| 20260508164302 | 11 | 338 | 6.4 | 22.5 | 0.00 | 0.00 | 0.00 | 30 | 731.4 |
| 20260508163805 | 11 | 53 | 4.8 | 12.9 | 0.00 | 0.00 | 0.00 | 30 | 731.4 |
| 20260508163302 | 11 | 334 | 6.4 | 19.3 | 0.00 | 0.00 | 0.00 | 30 | 731.4 |
| 20260508162803 | 11 | 355 | 8.0 | 19.3 | 0.00 | 0.00 | 0.00 | 30 | 731.4 |
| 20260508162307 | 11 | 6 | 9.7 | 20.9 | 0.00 | 0.00 | 0.00 | 30 | 731.4 |
| 20260508161803 | 11 | 0 | 8.0 | 14.5 | 0.00 | 0.00 | 0.00 | 29 | 731.4 |
| 20260508161302 | 11 | 355 | 6.4 | 14.5 | 0.00 | 0.00 | 0.00 | 29 | 731.4 |
| 20260508160806 | 11 | 352 | 8.0 | 12.9 | 0.00 | 0.00 | 0.00 | 29 | 731.4 |
| 20260508160303 | 11 | 65 | 6.4 | 16.1 | 0.00 | 0.00 | 0.00 | 29 | 731.4 |
| 20260508155803 | 11 | 328 | 3.2 | 14.5 | 0.00 | 0.00 | 0.00 | 29 | 731.4 |
| 20260508155305 | 11 | 358 | 4.8 | 11.3 | 0.00 | 0.00 | 0.00 | 29 | 731.4 |
| 20260508154803 | 11 | 348 | 8.0 | 17.7 | 0.00 | 0.00 | 0.00 | 29 | 731.4 |
| 20260508154303 | 11 | 336 | 4.8 | 12.9 | 0.00 | 0.00 | 0.00 | 30 | 731.4 |
| 20260508153802 | 11 | 0 | 6.4 | 14.5 | 0.00 | 0.00 | 0.00 | 30 | 731.4 |
| 20260508153304 | 11 | 1 | 6.4 | 12.9 | 0.00 | 0.00 | 0.00 | 30 | 731.4 |
| 20260508152802 | 11 | 350 | 6.4 | 16.1 | 0.00 | 0.00 | 0.00 | 30 | 731.4 |
| 20260508152305 | 11 | 8 | 6.4 | 12.9 | 0.00 | 0.00 | 0.00 | 30 | 731.4 |
| 20260508151802 | 11 | 335 | 1.6 | 11.3 | 0.00 | 0.00 | 0.00 | 31 | 731.4 |
| 20260508151302 | 10 | 1 | 6.4 | 12.9 | 0.00 | 0.00 | 0.00 | 30 | 731.4 |
| 20260508150805 | 10 | 9 | 6.4 | 12.9 | 0.00 | 0.00 | 0.00 | 30 | 731.4 |
| 20260508150304 | 10 | 350 | 6.4 | 16.1 | 0.00 | 0.00 | 0.00 | 31 | 731.4 |
| 20260508145802 | 10 | 344 | 8.0 | 12.9 | 0.00 | 0.00 | 0.00 | 28 | 731.1 |
| 20260508145306 | 10 | 336 | 6.4 | 14.5 | 0.00 | 0.00 | 0.00 | 31 | 731.1 |
| 20260508144803 | 10 | 354 | 4.8 | 16.1 | 0.00 | 0.00 | 0.00 | 32 | 731.1 |
| 20260508144305 | 10 | 358 | 8.0 | 16.1 | 0.00 | 0.00 | 0.00 | 31 | 731.1 |
| 20260508143802 | 10 | 340 | 6.4 | 16.1 | 0.00 | 0.00 | 0.00 | 31 | 731.1 |
| 20260508143303 | 10 | 14 | 11.3 | 16.1 | 0.00 | 0.00 | 0.00 | 32 | 731.1 |
| 20260508142803 | 10 | 1 | 11.3 | 16.1 | 0.00 | 0.00 | 0.00 | 32 | 731.1 |
| 20260508142306 | 10 | 357 | 6.4 | 14.5 | 0.00 | 0.00 | 0.00 | 32 | 731.1 |
| 20260508141802 | 10 | 1 | 6.4 | 14.5 | 0.00 | 0.00 | 0.00 | 32 | 731.1 |
| 20260508141302 | 9 | 357 | 6.4 | 12.9 | 0.00 | 0.00 | 0.00 | 32 | 731.1 |
| 20260508140804 | 9 | 354 | 6.4 | 11.3 | 0.00 | 0.00 | 0.00 | 32 | 730.8 |
| 20260508140304 | 9 | 356 | 6.4 | 11.3 | 0.00 | 0.00 | 0.00 | 32 | 730.8 |
| 20260508135802 | 9 | 347 | 6.4 | 12.9 | 0.00 | 0.00 | 0.00 | 32 | 730.8 |
| 20260508135305 | 9 | 9 | 6.4 | 12.9 | 0.00 | 0.00 | 0.00 | 32 | 730.8 |
| 20260508134803 | 9 | 6 | 8.0 | 12.9 | 0.00 | 0.00 | 0.00 | 32 | 730.8 |
| 20260508134306 | 8 | 5 | 8.0 | 12.9 | 0.00 | 0.00 | 0.00 | 33 | 730.8 |
| 20260508133803 | 8 | 350 | 6.4 | 11.3 | 0.00 | 0.00 | 0.00 | 34 | 730.8 |
| 20260508133303 | 8 | 347 | 6.4 | 12.9 | 0.00 | 0.00 | 0.00 | 33 | 730.4 |
| 20260508132802 | 8 | 5 | 9.7 | 12.9 | 0.00 | 0.00 | 0.00 | 33 | 730.4 |
| 20260508132306 | 8 | 350 | 6.4 | 14.5 | 0.00 | 0.00 | 0.00 | 34 | 730.4 |
| 20260508131806 | 8 | 353 | 6.4 | 12.9 | 0.00 | 0.00 | 0.00 | 35 | 730.4 |
| 20260508131303 | 7 | 352 | 6.4 | 11.3 | 0.00 | 0.00 | 0.00 | 35 | 730.4 |
| 20260508130803 | 7 | 354 | 4.8 | 11.3 | 0.00 | 0.00 | 0.00 | 35 | 730.4 |
| 20260508130302 | 7 | 344 | 8.0 | 14.5 | 0.00 | 0.00 | 0.00 | 35 | 730.4 |
| 20260508125802 | 7 | 349 | 6.4 | 11.3 | 0.00 | 0.00 | 0.00 | 35 | 730.4 |
| 20260508125305 | 7 | 347 | 8.0 | 12.9 | 0.00 | 0.00 | 0.00 | 34 | 730.4 |
| 20260508124803 | 7 | 342 | 9.7 | 12.9 | 0.00 | 0.00 | 0.00 | 35 | 730.4 |
| 20260508124303 | 7 | 341 | 8.0 | 12.9 | 0.00 | 0.00 | 0.00 | 35 | 730.4 |
| 20260508123802 | 7 | 336 | 6.4 | 11.3 | 0.00 | 0.00 | 0.00 | 35 | 730.4 |
| 20260508123303 | 7 | 330 | 6.4 | 11.3 | 0.00 | 0.00 | 0.00 | 36 | 730.4 |
| 20260508122806 | 7 | 334 | 8.0 | 11.3 | 0.00 | 0.00 | 0.00 | 35 | 730.4 |
| 20260508122306 | 7 | 338 | 6.4 | 11.3 | 0.00 | 0.00 | 0.00 | 35 | 730.4 |
| 20260508121802 | 7 | 341 | 8.0 | 11.3 | 0.00 | 0.00 | 0.00 | 35 | 730.1 |
| 20260508121302 | 7 | 341 | 6.4 | 11.3 | 0.00 | 0.00 | 0.00 | 35 | 730.1 |
| 20260508120803 | 7 | 343 | 8.0 | 14.5 | 0.00 | 0.00 | 0.00 | 35 | 730.1 |
| 20260508120303 | 7 | 344 | 6.4 | 16.1 | 0.00 | 0.00 | 0.00 | 35 | 730.1 |
| 20260508115805 | 7 | 343 | 8.0 | 16.1 | 0.00 | 0.00 | 0.00 | 35 | 730.1 |
| 20260508115306 | 7 | 351 | 8.0 | 14.5 | 0.00 | 0.00 | 0.00 | 35 | 730.1 |
| 20260508114802 | 7 | 348 | 9.7 | 16.1 | 0.00 | 0.00 | 0.00 | 35 | 730.1 |
| 20260508114303 | 7 | 358 | 8.0 | 14.5 | 0.00 | 0.00 | 0.00 | 35 | 730.1 |
| 20260508113802 | 7 | 345 | 9.7 | 16.1 | 0.00 | 0.00 | 0.00 | 35 | 730.1 |
| 20260508113303 | 7 | 354 | 8.0 | 16.1 | 0.00 | 0.00 | 0.00 | 35 | 730.1 |
| 20260508112803 | 8 | 357 | 8.0 | 19.3 | 0.00 | 0.00 | 0.00 | 35 | 730.1 |
| 20260508112306 | 7 | 357 | 9.7 | 16.1 | 0.00 | 0.00 | 0.00 | 35 | 730.1 |
| 20260508111802 | 7 | 355 | 8.0 | 17.7 | 0.00 | 0.00 | 0.00 | 35 | 730.1 |
| 20260508111305 | 7 | 357 | 9.7 | 19.3 | 0.00 | 0.00 | 0.00 | 35 | 730.1 |
| 20260508110805 | 7 | 353 | 8.0 | 16.1 | 0.00 | 0.00 | 0.00 | 35 | 730.1 |
| 20260508110302 | 7 | 344 | 8.0 | 14.5 | 0.00 | 0.00 | 0.00 | 35 | 730.1 |
| 20260508105805 | 7 | 347 | 4.8 | 14.5 | 0.00 | 0.00 | 0.00 | 35 | 730.1 |
| 20260508105305 | 8 | 351 | 6.4 | 17.7 | 0.00 | 0.00 | 0.00 | 35 | 730.1 |
| 20260508104802 | 8 | 351 | 8.0 | 17.7 | 0.00 | 0.00 | 0.00 | 35 | 730.1 |
| 20260508104302 | 7 | 353 | 9.7 | 16.1 | 0.00 | 0.00 | 0.00 | 35 | 730.1 |
| 20260508103803 | 8 | 354 | 6.4 | 19.3 | 0.00 | 0.00 | 0.00 | 34 | 730.4 |
| 20260508103302 | 8 | 354 | 9.7 | 17.7 | 0.00 | 0.00 | 0.00 | 34 | 730.1 |
| 20260508102802 | 8 | 357 | 6.4 | 22.5 | 0.00 | 0.00 | 0.00 | 34 | 730.1 |
| 20260508102306 | 8 | 0 | 12.9 | 22.5 | 0.00 | 0.00 | 0.00 | 34 | 730.4 |
| 20260508101802 | 8 | 5 | 9.7 | 25.7 | 0.00 | 0.00 | 0.00 | 33 | 730.4 |
| 20260508101303 | 8 | 357 | 11.3 | 22.5 | 0.00 | 0.00 | 0.00 | 34 | 730.1 |
| 20260508100803 | 7 | 355 | 9.7 | 22.5 | 0.00 | 0.00 | 0.00 | 34 | 730.1 |
| 20260508100303 | 7 | 357 | 6.4 | 20.9 | 0.00 | 0.00 | 0.00 | 34 | 730.1 |
| 20260508095805 | 7 | 12 | 4.8 | 17.7 | 0.00 | 0.00 | 0.00 | 34 | 730.1 |
| 20260508095306 | 7 | 338 | 4.8 | 11.3 | 0.00 | 0.00 | 0.00 | 34 | 730.1 |
| 20260508094803 | 7 | 334 | 6.4 | 17.7 | 0.00 | 0.00 | 0.00 | 34 | 730.1 |
| 20260508094302 | 7 | 330 | 6.4 | 22.5 | 0.00 | 0.00 | 0.00 | 34 | 730.1 |
| 20260508093802 | 7 | 354 | 9.7 | 24.1 | 0.00 | 0.00 | 0.00 | 34 | 730.1 |
| 20260508093302 | 7 | 1 | 9.7 | 19.3 | 0.00 | 0.00 | 0.00 | 34 | 730.1 |
| 20260508092807 | 7 | 350 | 9.7 | 24.1 | 0.00 | 0.00 | 0.00 | 34 | 730.1 |
| 20260508092312 | 7 | 356 | 11.3 | 25.7 | 0.00 | 0.00 | 0.00 | 35 | 730.1 |
| 20260508091802 | 7 | 342 | 6.4 | 22.5 | 0.00 | 0.00 | 0.00 | 35 | 730.1 |
| 20260508091302 | 7 | 344 | 8.0 | 19.3 | 0.00 | 0.00 | 0.00 | 35 | 730.1 |
| 20260508090803 | 8 | 353 | 9.7 | 24.1 | 0.00 | 0.00 | 0.00 | 34 | 730.4 |
| 20260508090302 | 8 | 350 | 11.3 | 20.9 | 0.00 | 0.00 | 0.00 | 34 | 730.4 |
| 20260508085805 | 8 | 353 | 8.0 | 20.9 | 0.00 | 0.00 | 0.00 | 34 | 730.4 |
| 20260508085306 | 8 | 345 | 11.3 | 27.4 | 0.00 | 0.00 | 0.00 | 34 | 730.4 |
| 20260508084803 | 8 | 354 | 8.0 | 25.7 | 0.00 | 0.00 | 0.00 | 33 | 730.4 |
| 20260508084302 | 8 | 2 | 8.0 | 20.9 | 0.00 | 0.00 | 0.00 | 33 | 730.4 |
| 20260508083802 | 8 | 350 | 8.0 | 24.1 | 0.00 | 0.00 | 0.00 | 33 | 730.4 |
| 20260508083304 | 8 | 342 | 9.7 | 19.3 | 0.00 | 0.00 | 0.00 | 33 | 730.4 |
| 20260508082802 | 8 | 345 | 8.0 | 20.9 | 0.00 | 0.00 | 0.00 | 33 | 730.4 |
| 20260508082306 | 8 | 349 | 11.3 | 22.5 | 0.00 | 0.00 | 0.00 | 33 | 730.4 |
| 20260508081802 | 8 | 352 | 8.0 | 22.5 | 0.00 | 0.00 | 0.00 | 33 | 730.4 |
| 20260508081304 | 8 | 341 | 11.3 | 22.5 | 0.00 | 0.00 | 0.00 | 35 | 730.4 |
| 20260508080803 | 7 | 5 | 9.7 | 20.9 | 0.00 | 0.00 | 0.00 | 36 | 730.8 |
| 20260508080303 | 7 | 355 | 8.0 | 19.3 | 0.00 | 0.00 | 0.00 | 37 | 730.8 |
| 20260508075802 | 7 | 351 | 9.7 | 22.5 | 0.00 | 0.00 | 0.00 | 37 | 730.8 |
| 20260508075308 | 7 | 348 | 8.0 | 19.3 | 0.00 | 0.00 | 0.00 | 39 | 730.8 |
| 20260508074803 | 7 | 350 | 9.7 | 20.9 | 0.00 | 0.00 | 0.00 | 40 | 730.8 |
| 20260508074302 | 7 | 346 | 9.7 | 24.1 | 0.00 | 0.00 | 0.00 | 40 | 730.8 |
| 20260508073802 | 7 | 343 | 11.3 | 20.9 | 0.00 | 0.00 | 0.00 | 40 | 730.8 |
| 20260508073302 | 7 | 347 | 14.5 | 25.7 | 0.00 | 0.00 | 0.00 | 40 | 730.8 |
| 20260508072802 | 7 | 344 | 11.3 | 20.9 | 0.00 | 0.00 | 0.00 | 40 | 730.8 |
| 20260508072307 | 7 | 346 | 11.3 | 20.9 | 0.00 | 0.00 | 0.00 | 40 | 730.8 |
| 20260508071803 | 7 | 345 | 9.7 | 19.3 | 0.00 | 0.00 | 0.00 | 40 | 730.8 |
| 20260508071302 | 7 | 349 | 9.7 | 25.7 | 0.00 | 0.00 | 0.00 | 40 | 730.8 |
| 20260508070806 | 7 | 347 | 12.9 | 20.9 | 0.00 | 0.00 | 0.00 | 40 | 730.8 |
| 20260508070302 | 7 | 344 | 12.9 | 27.4 | 0.00 | 0.00 | 0.00 | 39 | 730.8 |
| 20260508065802 | 7 | 342 | 11.3 | 22.5 | 0.00 | 0.00 | 0.00 | 39 | 730.8 |
| 20260508065306 | 7 | 347 | 11.3 | 22.5 | 0.00 | 0.00 | 0.00 | 39 | 730.8 |
| 20260508064802 | 8 | 344 | 11.3 | 25.7 | 0.00 | 0.00 | 0.00 | 39 | 730.8 |
| 20260508064305 | 7 | 345 | 14.5 | 25.7 | 0.00 | 0.00 | 0.00 | 39 | 730.8 |
| 20260508063803 | 7 | 343 | 14.5 | 27.4 | 0.00 | 0.00 | 0.00 | 39 | 730.8 |
| 20260508063305 | 7 | 342 | 9.7 | 19.3 | 0.00 | 0.00 | 0.00 | 39 | 730.8 |
| 20260508062802 | 8 | 345 | 11.3 | 24.1 | 0.00 | 0.00 | 0.00 | 38 | 730.8 |
| 20260508062305 | 8 | 340 | 16.1 | 30.6 | 0.00 | 0.00 | 0.00 | 39 | 730.8 |
| 20260508061805 | 8 | 345 | 14.5 | 29.0 | 0.00 | 0.00 | 0.00 | 39 | 730.8 |
| 20260508061305 | 8 | 346 | 14.5 | 30.6 | 0.00 | 0.00 | 0.00 | 38 | 730.8 |
| 20260508060802 | 8 | 339 | 16.1 | 30.6 | 0.00 | 0.00 | 0.00 | 38 | 730.8 |
| 20260508060304 | 8 | 342 | 20.9 | 30.6 | 0.00 | 0.00 | 0.00 | 39 | 730.8 |
| 20260508055802 | 8 | 343 | 12.9 | 27.4 | 0.00 | 0.00 | 0.00 | 39 | 730.8 |
| 20260508055306 | 8 | 347 | 17.7 | 29.0 | 0.00 | 0.00 | 0.00 | 39 | 730.8 |
| 20260508054802 | 8 | 333 | 12.9 | 29.0 | 0.00 | 0.00 | 0.00 | 41 | 730.8 |
| 20260508054303 | 8 | 346 | 14.5 | 29.0 | 0.00 | 0.00 | 0.00 | 40 | 730.8 |
| 20260508053803 | 8 | 338 | 14.5 | 32.2 | 0.00 | 0.00 | 0.00 | 41 | 730.8 |
| 20260508053303 | 8 | 338 | 16.1 | 32.2 | 0.00 | 0.00 | 0.00 | 42 | 730.8 |
| 20260508052803 | 8 | 336 | 14.5 | 30.6 | 0.00 | 0.00 | 0.00 | 42 | 730.8 |
| 20260508052306 | 8 | 343 | 16.1 | 25.7 | 0.00 | 0.00 | 0.00 | 43 | 730.8 |
| 20260508051803 | 8 | 341 | 12.9 | 30.6 | 0.00 | 0.00 | 0.00 | 45 | 730.8 |
| 20260508051305 | 7 | 342 | 16.1 | 29.0 | 0.00 | 0.00 | 0.00 | 51 | 730.8 |
| 20260508050806 | 7 | 331 | 14.5 | 25.7 | 0.00 | 0.00 | 0.00 | 58 | 730.8 |
| 20260508050303 | 7 | 336 | 9.7 | 20.9 | 0.00 | 0.00 | 0.00 | 49 | 730.8 |
| 20260508045802 | 7 | 338 | 11.3 | 25.7 | 0.00 | 0.00 | 0.00 | 48 | 730.8 |
| 20260508045306 | 7 | 338 | 9.7 | 17.7 | 0.00 | 0.00 | 0.00 | 51 | 730.8 |
| 20260508044802 | 6 | 336 | 9.7 | 17.7 | 0.00 | 0.00 | 0.00 | 67 | 730.8 |
| 20260508044305 | 6 | 330 | 4.8 | 17.7 | 0.00 | 0.00 | 0.00 | 68 | 730.8 |
| 20260508043802 | 6 | 334 | 8.0 | 16.1 | 0.00 | 0.00 | 0.00 | 68 | 730.8 |
| 20260508043302 | 6 | 339 | 9.7 | 17.7 | 0.00 | 0.00 | 0.00 | 63 | 730.8 |
| 20260508042805 | 6 | 335 | 8.0 | 16.1 | 0.00 | 0.00 | 0.00 | 66 | 730.8 |
| 20260508042306 | 6 | 338 | 9.7 | 19.3 | 0.00 | 0.00 | 0.00 | 68 | 730.8 |
| 20260508041802 | 6 | 335 | 9.7 | 16.1 | 0.00 | 0.00 | 0.00 | 68 | 730.8 |
| 20260508041303 | 6 | 334 | 6.4 | 12.9 | 0.00 | 0.00 | 0.00 | 64 | 730.8 |
| 20260508040802 | 6 | 340 | 9.7 | 14.5 | 0.00 | 0.00 | 0.00 | 64 | 730.4 |
| 20260508040302 | 6 | 337 | 8.0 | 14.5 | 0.00 | 0.00 | 0.00 | 62 | 730.4 |
| 20260508035803 | 6 | 332 | 8.0 | 17.7 | 0.00 | 0.00 | 0.00 | 69 | 730.4 |
| 20260508035306 | 7 | 334 | 8.0 | 14.5 | 0.00 | 0.00 | 0.00 | 64 | 730.4 |